Location: Morlupo
(42.1333°N, 12.5000°E)
Time: 16:39:23
(UTC+00:00)

SL-16 R/B - Pass Details

Date: 18 September 2020
Orbit: 842 x 848 km, 71.0° (Epoch: 25 October)

Event Time Altitude Azimuth Distance (km) Brightness Sun altitude
Rises 17:37:39 0° 328° (NNW) 3,414 6.0 -5.2°
Reaches altitude 10° 17:40:15 10° 321° (NW) 2,473 5.4 -5.7°
Maximum altitude 17:45:27 38° 254° (WSW) 1,258 3.8 -6.7°
Drops below altitude 10° 17:50:37 10° 188° (S) 2,454 4.6 -7.6°
Sets 17:53:11 0° 180° (S) 3,384 5.2 -8.1°
